Regional Weather Roundup
Issued by NWS

Home | Current Version | Previous Version | Text Only | Print | Product List | Glossary Off
Versions: 1 2 3 4 5 6 7 8 9 10 11 12 13 14 15 16 17 18 19 20 21 22 23 24 25 26 27 28 29 30 31 32 33 34 35 36 37 38 39 40 41 42 43 44 45 46 47 48 49 50

000
ASUS43 KIND 252359
RWRIN

WEATHER ROUNDUP FOR INDIANA
NATIONAL WEATHER SERVICE INDIANAPOLIS IN
800 PM EDT SAT OCT 25 2014

NOTE: "FAIR" INDICATES FEW OR NO CLOUDS BELOW 12,000 FEET WITH NO
SIGNIFICANT WEATHER AND/OR OBSTRUCTIONS TO VISIBILITY.

* - STATION DOES NOT REPORT WEATHER SUCH AS PRECIPITATION OR FOG.

+ - STATION NOT QUALITY CONTROLLED BY THE NATIONAL WEATHER SERVICE.
    USE DATA WITH CAUTION...ESPECIALLY DEWPOINT AND RELATIVE
    HUMIDITY OBSERVATIONS.

INZ001>003-010>013-019-020-260100-
NORTHWEST INDIANA

CITY           SKY/WX    TMP DP  RH WIND       PRES   REMARKS
GARY /AIRPORT/ CLEAR     64  27  24 W12       29.92R
VALPARAISO     NOT AVBL

$$

LMZ046-743>745-260100-
SOUTHERN LAKE MICHIGAN

STATION/POSITION TIME  TEMP WIND        PRES
                       AIR  DIR/SP/G
                 (UTC) (F)  (DEG/KT/KT) (MB)
MICHIGAN CITY    2300   61  270/  8/ 10   N/A

$$

INZ004-005-014>016-021>024-260100-
NORTH CENTRAL INDIANA

CITY           SKY/WX    TMP DP  RH WIND       PRES   REMARKS
GOSHEN         CLEAR     57  39  51 W8        29.88R
6HR MIN TEMP:  56; 6HR MAX TEMP:  68;

SOUTH BEND     CLEAR     55  37  50 W7        29.89S
6HR MIN TEMP:  55; 6HR MAX TEMP:  69;


$$

INZ006>009-017-018-025>027-260100-
NORTHEAST INDIANA

CITY           SKY/WX    TMP DP  RH WIND       PRES   REMARKS
ANGOLA *+      CLEAR     59  36  41 VRB5      29.86R
FORT WAYNE     PTCLDY    56  36  47 W7        29.88S
6HR MIN TEMP:  56; 6HR MAX TEMP:  71;


$$

INZ028-029-035-036-043>045-051>053-260100-
WEST CENTRAL INDIANA

CITY           SKY/WX    TMP DP  RH WIND       PRES   REMARKS
GREENCASTLE +  CLEAR     68  46  45 CALM      29.95S
LAFAYETTE      CLEAR     61  44  53 W8        29.92S
6HR MIN TEMP:  61; 6HR MAX TEMP:  73;

TERRE HAUTE    CLEAR     67  48  50 W6        29.96S
6HR MIN TEMP:  64; 6HR MAX TEMP:  79;


$$

INZ030>032-037>040-046>048-054>057-064-065-260100-
CENTRAL INDIANA

CITY           SKY/WX    TMP DP  RH WIND       PRES   REMARKS
INDIANAPOLIS   PTCLDY    62  45  53 W10       29.92F
6HR MIN TEMP:  62; 6HR MAX TEMP:  76;

-EAGLE CREEK   CLEAR     67  46  47 W5        29.92F
6HR MIN TEMP:  67; 6HR MAX TEMP:  76;

KOKOMO *+      CLEAR     61  43  51 W9        29.90F
MT COMFORT *+  CLEAR     61  36  39 W8        29.93S
SHELBYVILLE    CLEAR     65  47  52 W7        29.92S
6HR MIN TEMP:  65; 6HR MAX TEMP:  78;


$$

INZ033-034-041-042-049-050-058-059-260100-
EAST CENTRAL INDIANA

CITY           SKY/WX    TMP DP  RH WIND       PRES   REMARKS
MUNCIE         CLEAR     63  47  55 W7        29.89F
6HR MIN TEMP:  63; 6HR MAX TEMP:  76; 6HR PCP: TRACE;


$$

INZ060-061-067>069-081>083-085>088-260100-
SOUTHWEST INDIANA

CITY           SKY/WX    TMP DP  RH WIND       PRES   REMARKS
EVANSVILLE     CLEAR     67  54  63 SW3       30.00R
6HR MIN TEMP:  66; 6HR MAX TEMP:  80;

HUNTINGBURG *+ CLEAR     64  54  68 W3        29.99S
6HR MIN TEMP:  64; 6HR MAX TEMP:  77;


$$

INZ062-063-066-070>080-084-089>092-260100-
SOUTH CENTRAL AND SOUTHEAST INDIANA

CITY           SKY/WX    TMP DP  RH WIND       PRES   REMARKS
BLOOMINGTON    CLEAR     60  51  72 W5        29.96S
6HR MIN TEMP:  60; 6HR MAX TEMP:  77;

SEYMOUR +      CLEAR     63  52  67 SW5       29.95S

$$




USA.gov is the U.S. government's official web portal to all federal, state and local government web resources and services.